www.pogodaiklimat.ru

Погода и климат >> Архив погоды >> Великобритания >> London


АРХИВ ПОГОДЫ в London

Время (UTC), дата Ветер
(напр.,м/с)
 
Видим.   Явления Облачность Т
(С)
Тd
(С)
f
(%)
Тe
(С)
Тes
(С)
Комфортность P
(гПа)
Po
(гПа)
Тmin
(С)
Tmax
(С)
R
(мм)
R24
(мм)
S
(см)
01 14.10 ЮЗ 6 27 км н/о +16.2 +13.9 86 +15 +15 тепло 1023.5 1020.5
02 14.10 ЮЗ 3 23 км н/о +15.9 +14.1 89 +15 +15 тепло 1023.5 1020.5
03 14.10 ЮЗ 4 23 км н/о +16.1 +14.3 89 +15 +15 тепло 1023.8 1020.8
04 14.10 ЮЗ 4 22 км н/о +16.3 +14.4 89 +16 +16 тепло 1023.6 1020.6
05 14.10 ЮЗ 5 24 км н/о +16.3 +14.3 88 +15 +15 тепло 1023.8 1020.8
06 14.10 Ю 4 18 км н/о +16.2 +14.4 89 +16 +16 тепло 1023.8 1020.8 +15.7
07 14.10 Ю 4 15 км н/о +15.8 +14.2 90 +15 +15 тепло 1024.0 1020.9
08 14.10 ЮЗ 5 21 км н/о +16.4 +14.6 89 +16 +16 тепло 1024.2 1021.1
09 14.10 ЮЗ 6 18 км н/о +17.5 +14.7 84 +17 +17 тепло 1024.7 1021.7
10 14.10 ЮЗ 6 22 км н/о +18.5 +14.5 78 +19 +19 тепло 1024.8 1021.8
11 14.10 ЮЗ 5 28 км н/о +19.1 +14.8 76 +20 +20 тепло 1024.8 1021.8
12 14.10 ЮЗ 5 23 км н/о +19.7 +14.5 72 +21 +21 комфорт 1024.4 1021.5
13 14.10 ЮЗ 5 26 км н/о +19.5 +14.5 73 +21 +21 комфорт 1024.3 1021.3
14 14.10 ЮЗ 5 23 км н/о +19.2 +14.0 72 +20 +20 тепло 1024.2 1021.3
15 14.10 Ю 4 30 км н/о +19.1 +13.6 70 +20 +20 тепло 1024.1 1021.2
16 14.10 Ю 4 40 км н/о +18.7 +13.6 72 +19 +19 тепло 1024.0 1021.0
17 14.10 ЮЗ 4 35 км н/о +18.3 +13.3 73 +19 +19 тепло 1023.8 1020.8
18 14.10 Ю 3 30 км н/о +17.8 +13.0 73 +18 +18 тепло 1023.7 1020.7 +20.0
19 14.10 Ю 4 22 км н/о +16.7 +13.0 79 +16 +16 тепло 1023.4 1020.4
20 14.10 Ю 4 11 км н/о +15.5 +13.9 90 +14 +14 тепло 1023.0 1019.9
21 14.10 ЮВ 4 5000 м дымка н/о +14.4 +13.8 96 +13 +13 тепло 1022.7 1019.7
22 14.10 Ю 2 5000 м дымка н/о +13.5 +13.0 97 +13 +13 тепло 1022.5 1019.4
23 14.10 ЮВ 3 5000 м дымка н/о +13.2 +12.6 96 +12 +12 тепло 1022.2 1019.2
00 15.10 ЮВ 2 2800 м дымка н/о +11.2 +10.5 95 +10 +10 по сезону 1021.8 1018.8
01 15.10 ЮВ 2 4200 м дымка н/о +12.0 +11.9 99 +11 +11 тепло 1021.1 1018.0
02 15.10 ЮВ 2 3700 м дымка н/о +11.5 +11.4 99 +10 +10 тепло 1020.5 1017.4
03 15.10 ЮВ 2 1800 м дымка н/о +11.4 +11.3 99 +10 +10 по сезону 1019.8 1016.8
04 15.10 ЮВ 1 2600 м в посл. час туман н/о +10.9 +10.8 99 +10 +10 тепло 1019.3 1016.2
05 15.10 ЮВ 3 5000 м в посл. час туман н/о +11.7 +11.7 100 +10 +10 тепло 1018.6 1015.6
06 15.10 ЮВ 4 9000 м дымка н/о +13.3 +12.8 97 +11 +11 тепло 1018.0 1014.9 +10.4
07 15.10 Ю 3 11 км н/о +13.9 +12.9 94 +13 +13 тепло 1018.1 1015.1
08 15.10 Ю 4 11 км н/о +14.9 +13.7 93 +14 +14 тепло 1018.3 1015.3
09 15.10 Ю 4 9000 м дым н/о +15.6 +14.4 93 +15 +15 тепло 1018.4 1015.4
10 15.10 ЮЗ 4 9000 м дым н/о +16.8 +14.9 89 +16 +16 тепло 1018.3 1015.3
11 15.10 ЮЗ 5 11 км н/о +17.7 +14.2 80 +17 +17 тепло 1018.1 1015.1
12 15.10 Ю 6 15 км н/о +18.7 +13.6 72 +19 +19 тепло 1017.6 1014.7
13 15.10 Ю 7 24 км н/о +19.9 +13.5 67 +21 +21 комфорт 1017.4 1014.4
14 15.10 ЮЗ 6 20 км н/о +19.1 +12.8 67 +20 +20 тепло 1017.4 1014.5
15 15.10 Ю 5 15 км н/о +19.3 +13.1 67 +20 +20 тепло 1017.0 1014.0
16 15.10 ЮЗ 6 17 км н/о +18.6 +13.2 71 +19 +19 тепло 1016.9 1013.9
17 15.10 Ю 5 13 км н/о +16.9 +13.0 78 +16 +16 тепло 1017.0 1014.0
18 15.10 Ю 4 11 км н/о +15.9 +12.9 82 +15 +15 тепло 1017.3 1014.3 +20.2
19 15.10 Ю 3 9000 м дым н/о +15.3 +13.1 87 +15 +15 тепло 1017.4 1014.4
20 15.10 Ю 2 8000 м дым н/о +15.0 +13.3 90 +15 +15 тепло 1017.3 1014.3
21 15.10 ЮВ 2 6000 м дым н/о +14.1 +12.5 90 +14 +14 тепло 1017.3 1014.2
22 15.10 В 1 6000 м дым н/о +13.3 +12.1 92 +14 +14 тепло 1017.2 1014.1
23 15.10 В 1 4800 м дымка н/о +13.1 +12.9 99 +14 +14 тепло 1017.0 1014.0
00 16.10 В 1 4600 м дымка н/о +13.2 +13.1 99 +14 +14 тепло 1016.8 1013.8
01 16.10 СВ 1 4200 м дымка н/о +12.9 +12.5 97 +14 +14 тепло 1016.7 1013.7
02 16.10 СВ 1 4600 м дымка н/о +12.4 +12.2 99 +13 +13 тепло 1016.5 1013.4
03 16.10 В 1 3100 м дымка н/о +12.2 +11.7 97 +12 +12 тепло 1016.3 1013.2
04 16.10 В 1 5000 м дымка н/о +13.6 +13.6 100 +14 +14 тепло 1016.2 1013.2
05 16.10 В 1 8000 м дымка н/о +14.7 +14.5 99 +15 +15 тепло 1015.8 1012.8
06 16.10 С 2 6000 м дымка н/о +15.0 +14.3 96 +15 +15 тепло 1015.8 1012.8 +11.6
07 16.10 В 4 11 км дым н/о +16.3 +15.3 94 +16 +16 тепло 1015.2 1012.2
08 16.10 ЮВ 5 15 км н/о +18.0 +15.9 88 +18 +18 тепло 1014.8 1011.9
09 16.10 ЮВ 5 17 км н/о +20.1 +16.0 77 +23 +23 комфорт 1014.4 1011.5
10 16.10 Ю 7 22 км н/о +21.9 +15.0 65 +25 +25 комфорт 1014.6 1011.7
11 16.10 Ю 7 30 км н/о +22.1 +14.6 62 +25 +25 комфорт 1014.4 1011.5
12 16.10 Ю 6-11
{13}
19 км н/о +21.4 +15.0 67 +25 +25 комфорт 1014.6 1011.7
13 16.10 Ю 7-13
{13}
14 км н/о +20.6 +14.9 70 +23 +23 комфорт 1014.4 1011.4
14 16.10 ЮЗ 10
{14}
15 км н/о +19.4 +12.2 63 +20 +20 тепло 1014.8 1011.8
15 16.10 ЮЗ 9
{18}
11 км н/о +17.9 +11.3 65 +17 +17 тепло 1015.0 1012.0
16 16.10 ЮЗ 8
{14}
11 км н/о +17.1 +10.1 63 +16 +16 тепло 1015.5 1012.5
17 16.10 ЮЗ 8
{14}
12 км н/о +16.6 +10.2 66 +15 +15 тепло 1015.9 1012.9
18 16.10 ЮЗ 8 11 км н/о +15.8 +9.4 66 +14 +14 тепло 1016.6 1013.6 +22.4
19 16.10 ЮЗ 7 11 км н/о +15.1 +8.9 66 +13 +13 тепло 1017.0 1013.9
20 16.10 ЮЗ 7 10 км н/о +14.8 +8.9 68 +13 +13 тепло 1017.3 1014.3
21 16.10 ЮЗ 8
{13}
11 км н/о +14.6 +8.5 67 +12 +12 по сезону 1017.8 1014.7
22 16.10 ЮЗ 8
{13}
11 км н/о +14.3 +8.2 67 +12 +12 тепло 1018.0 1015.0
23 16.10 ЮЗ 8
{15}
12 км н/о +13.5 +7.7 68 +11 +11 тепло 1018.6 1015.6
00 17.10 ЮЗ 7 13 км н/о +13.1 +7.8 70 +11 +11 тепло 1018.8 1015.7
01 17.10 ЮЗ 6 11 км н/о +12.9 +8.3 74 +11 +11 тепло 1018.9 1015.9
02 17.10 ЮЗ 7 11 км н/о +12.5 +8.4 76 +10 +10 тепло 1019.0 1016.0
03 17.10 ЮЗ 7 13 км н/о +12.0 +7.3 73 +9 +9 по сезону 1019.1 1016.0
04 17.10 ЮЗ 6 13 км н/о +11.8 +7.7 76 +9 +9 тепло 1019.1 1016.0
05 17.10 ЮЗ 5 12 км н/о +11.1 +7.5 78 +9 +9 тепло 1019.2 1016.2
06 17.10 ЮЗ 5 12 км н/о +10.8 +7.2 78 +8 +8 по сезону 1019.4 1016.4 +10.8
07 17.10 ЮЗ 7 14 км н/о +11.3 +7.0 75 +8 +8 по сезону 1020.0 1017.0
08 17.10 ЮЗ 4 13 км н/о +11.6 +7.4 75 +9 +9 по сезону 1020.4 1017.4
09 17.10 ЮЗ 5 16 км н/о +12.9 +7.9 72 +11 +11 по сезону 1020.4 1017.4
10 17.10 ЮЗ 5 16 км н/о +14.5 +8.1 65 +13 +13 тепло 1020.6 1017.6
11 17.10 ЮЗ 5 16 км н/о +14.3 +7.2 62 +13 +13 по сезону 1020.5 1017.4
12 17.10 ЮЗ 4 16 км н/о +14.0 +7.5 65 +13 +13 по сезону 1020.5 1017.5
13 17.10 ЮЗ 4 17 км н/о +13.9 +7.5 65 +13 +13 тепло 1019.7 1016.7
14 17.10 ЮЗ 4 16 км н/о +13.9 +7.3 64 +13 +13 тепло 1019.1 1016.0
15 17.10 З 4 14 км слаб. ливневой дождь н/о +13.7 +7.4 66 +12 +12 по сезону 1018.5 1015.5
16 17.10 З 4 13 км слаб. морось с дождем н/о +13.1 +8.2 72 +12 +12 тепло 1017.9 1014.9
17 17.10 З 3 20 км в посл. час дождь н/о +12.7 +7.4 70 +12 +12 тепло 1017.7 1014.6
18 17.10 ЮЗ 2 18 км в посл. час дождь н/о +12.4 +7.5 72 +12 +12 по сезону 1017.7 1014.6 +15.0 0.0
19 17.10 СЗ 1 15 км н/о +12.4 +8.3 76 +13 +13 тепло 1017.5 1014.4
20 17.10 ЮВ 2 14 км н/о +12.5 +8.2 75 +12 +12 тепло 1017.6 1014.6
21 17.10 СВ 1 14 км н/о +12.2 +7.9 75 +12 +12 тепло 1017.0 1013.9
22 17.10 СВ 2 13 км н/о +11.8 +8.4 80 +11 +11 тепло 1016.5 1013.5
23 17.10 С 2 14 км н/о +11.7 +8.6 81 +11 +11 тепло 1016.1 1013.0
00 18.10 С 2 16 км н/о +11.7 +8.9 83 +11 +11 тепло 1015.9 1012.9
01 18.10 С 3 12 км слаб. ливневой дождь н/о +11.3 +9.3 87 +10 +10 тепло 1014.9 1011.9
02 18.10 СВ 2 13 км в посл. час дождь н/о +11.5 +9.6 88 +10 +10 тепло 1014.4 1011.4
03 18.10 СВ 3 15 км н/о +11.8 +9.1 84 +10 +10 по сезону 1013.9 1010.9
04 18.10 СВ 3 14 км в посл. час дождь н/о +11.7 +9.5 86 +10 +10 тепло 1013.3 1010.3
05 18.10 СВ 3 11 км слаб. ливневой дождь н/о +11.7 +9.5 86 +10 +10 тепло 1012.9 1009.9
06 18.10 СВ 3 13 км в посл. час дождь н/о +11.8 +9.2 84 +10 +10 по сезону 1012.4 1009.4 +11.2 0.2
07 18.10 СВ 2 11 км слаб. ливневой дождь н/о +11.9 +9.3 84 +11 +11 тепло 1012.4 1009.4
08 18.10 СВ 3 13 км в посл. час дождь н/о +11.9 +9.7 86 +10 +10 по сезону 1012.3 1009.3
09 18.10 СВ 3 12 км слаб. ливневой дождь н/о +12.1 +10.1 88 +10 +10 по сезону 1012.2 1009.1
10 18.10 СВ 2 10 км слаб. дождь н/о +12.0 +10.4 90 +11 +11 по сезону 1012.2 1009.1
11 18.10 СВ 3 12 км в посл. час дождь н/о +12.4 +10.8 90 +11 +11 по сезону 1011.9 1008.9
12 18.10 СВ 2 11 км в посл. час дождь н/о +12.9 +11.3 90 +12 +12 по сезону 1011.5 1008.5 0.2
13 18.10 СВ 2 8000 м дым н/о +13.6 +12.1 91 +13 +13 тепло 1011.1 1008.1
14 18.10 СВ 3 5000 м дым н/о +13.9 +12.6 92 +13 +13 тепло 1010.7 1007.7
15 18.10 СВ 3 4600 м дым н/о +14.4 +13.1 92 +14 +14 тепло 1010.3 1007.3
16 18.10 СВ 2 4500 м дым н/о +14.8 +13.5 92 +14 +14 тепло 1010.1 1007.2
17 18.10 СВ 2 4400 м дым н/о +15.1 +13.8 92 +15 +15 тепло 1010.0 1007.0
18 18.10 В 2 3800 м дым н/о +15.1 +14.0 93 +15 +15 тепло 1010.2 1007.2 +15.2 0.2
19 18.10 В 2 2600 м в посл. час дождь н/о +14.9 +14.4 97 +15 +15 тепло 1010.6 1007.6
20 18.10 В 2 2200 м в посл. час дождь н/о +15.1 +14.9 99 +15 +15 тепло 1010.1 1007.1
21 18.10 ЮВ 3 2900 м в посл. час морось н/о +15.4 +14.9 97 +15 +15 тепло 1010.1 1007.1
22 18.10 Ю 2 3100 м дымка н/о +15.3 +14.7 96 +15 +15 тепло 1009.5 1006.5
23 18.10 ЮВ 2 2100 м ливневой дождь н/о +15.2 +14.8 97 +15 +15 тепло 1009.8 1006.8
00 19.10 ЮВ 2 1600 м в посл. час дождь н/о +15.1 +15.0 99 +15 +15 тепло 1009.4 1006.5 0.8
01 19.10 ЮВ 2 2100 м в посл. час дождь н/о +15.1 +15.0 99 +15 +15 тепло 1009.3 1006.3
02 19.10 ЮВ 2 2200 м дымка н/о +15.1 +15.0 99 +15 +15 тепло 1008.8 1005.8
03 19.10 ЮВ 3 2600 м дымка н/о +15.0 +14.9 99 +14 +14 тепло 1008.0 1005.0
04 19.10 В 3 2600 м в посл. час морось н/о +14.9 +14.7 99 +14 +14 тепло 1007.4 1004.5
05 19.10 В 3 2500 м в посл. час дождь н/о +14.7 +14.6 99 +14 +14 тепло 1006.8 1003.8
06 19.10 В 2 2000 м дымка н/о +14.8 +14.6 99 +15 +15 тепло 1006.7 1003.7 +14.5 1
07 19.10 В 2 2700 м в посл. час дождь н/о +15.0 +14.7 98 +15 +15 тепло 1006.3 1003.3
08 19.10 В 3 2300 м дымка н/о +15.1 +14.7 97 +14 +14 тепло 1006.0 1003.1
09 19.10 В 3 2800 м дымка н/о +15.3 +14.9 97 +15 +15 тепло 1005.4 1002.4
10 19.10 В 2 3700 м в посл. час дождь н/о +16.0 +15.4 96 +16 +16 тепло 1004.5 1001.5
11 19.10 В 5 4600 м слаб. ливневой дождь н/о +16.5 +15.7 95 +16 +16 тепло 1003.6 1000.6
12 19.10 ЮВ 5 9000 м в посл. час дождь н/о +16.6 +14.9 90 +16 +16 тепло 1002.7 999.8 0.2
13 19.10 Ю 6 11 км н/о +16.8 +14.3 85 +16 +16 тепло 1002.0 999.0
14 19.10 Ю 7 12 км н/о +16.8 +14.6 87 +16 +16 тепло 1001.5 998.6
15 19.10 Ю 6 8000 м дым н/о +16.3 +14.6 90 +15 +15 тепло 1001.4 998.4
16 19.10 Ю 5 17 км в посл. час дождь н/о +16.0 +13.5 85 +15 +15 тепло 1001.3 998.4
17 19.10 Ю 5 19 км н/о +15.8 +13.4 86 +15 +15 тепло 1001.3 998.4
18 19.10 Ю 5 14 км н/о +15.6 +13.3 86 +14 +14 тепло 1001.3 998.3 +17.1 0.2
19 19.10 Ю 5 13 км н/о +16.0 +13.4 85 +15 +15 тепло 1000.8 997.8
20 19.10 Ю 7 14 км слаб. ливневой дождь н/о +15.6 +13.1 85 +14 +14 тепло 999.9 996.9
21 19.10 Ю 7
{15}
17 км дождь н/о +14.1 +12.6 91 +12 +12 тепло 999.6 996.7
22 19.10 ЮВ 8
{14}
7000 м слаб. морось н/о +13.5 +12.3 92 +11 +11 тепло 998.5 995.5
23 19.10 Ю 5 23 км в посл. час дождь н/о +13.9 +12.4 91 +12 +12 тепло 998.4 995.4
00 20.10 Ю 5 20 км н/о +12.7 +10.9 89 +11 +11 тепло 998.6 995.6 1
01 20.10 Ю 6 15 км в посл. час дождь н/о +12.6 +10.5 87 +10 +10 тепло 998.2 995.2
02 20.10 Ю 7 14 км морось с дождем н/о +12.3 +10.6 89 +9 +9 тепло 997.7 994.7
03 20.10 Ю 6 4000 м морось с дождем н/о +12.1 +11.3 95 +9 +9 по сезону 997.3 994.3
04 20.10 Ю 7 18 км в посл. час дождь н/о +12.4 +11.6 95 +9 +9 тепло 997.1 994.2
05 20.10 ЮЗ 9
{13}
8000 м слаб. морось н/о +12.5 +11.3 92 +9 +9 тепло 997.7 994.7
06 20.10 ЮЗ 11 22 км в посл. час дождь н/о +12.5 +11.2 92 +9 +9 по сезону 998.9 996.0 +12.0 2
07 20.10 ЮЗ 8-13
{14}
50 км в посл. час дождь н/о +12.5 +11.2 92 +9 +9 тепло 1000.8 997.9
08 20.10 З 9
{13}
50 км н/о +12.7 +10.8 88 +9 +9 по сезону 1002.7 999.7
09 20.10 З 10
{14}
30 км н/о +12.6 +10.1 85 +9 +9 по сезону 1004.2 1001.2
10 20.10 З 9
{13}
30 км н/о +13.0 +9.7 80 +10 +10 по сезону 1005.5 1002.6
11 20.10 З 8
{14}
45 км н/о +13.7 +9.5 76 +11 +11 по сезону 1006.3 1003.3
12 20.10 З 9
{15}
29 км н/о +14.1 +8.5 69 +12 +12 по сезону 1006.9 1003.9 0.0
13 20.10 З 8
{15}
24 км н/о +14.6 +8.4 66 +12 +12 тепло 1007.6 1004.6
14 20.10 ЮЗ 8
{13}
22 км н/о +14.4 +7.0 61 +12 +12 по сезону 1008.3 1005.3
15 20.10 З 8 30 км н/о +14.9 +6.1 56 +13 +13 по сезону 1008.8 1005.8
16 20.10 ЮЗ 7 26 км н/о +13.6 +6.1 60 +11 +11 тепло 1009.1 1006.1
17 20.10 ЮЗ 4 29 км н/о +13.4 +6.8 64 +12 +12 тепло 1008.9 1005.9
18 20.10 Ю 3 22 км н/о +12.9 +7.5 70 +12 +12 по сезону 1009.0 1006.0 +16.2 0.0
19 20.10 Ю 4 17 км н/о +13.1 +8.7 75 +11 +11 тепло 1008.6 1005.6
20 20.10 ЮВ 4 16 км н/о +13.1 +9.1 77 +12 +12 тепло 1007.6 1004.6
21 20.10 ЮВ 5 14 км слаб. ливневой дождь н/о +13.4 +9.9 79 +12 +12 тепло 1006.6 1003.7
22 20.10 Ю 6 18 км в посл. час дождь н/о +14.8 +10.3 74 +13 +13 тепло 1005.4 1002.4
23 20.10 Ю 6 15 км в посл. час дождь н/о +14.7 +11.1 79 +13 +13 тепло 1004.5 1001.6
00 21.10 Ю 5 6000 м ливневой дождь н/о +13.5 +12.8 96 +11 +11 тепло 1003.5 1000.5 0.2

 

Местоположение метеостанции London (Великобритания): широта 51.48 долгота -0.45 высота над уровнем моря 25 м.

В архиве по умолчанию представлена погода в London за последнюю неделю. Архивные данные за месяц целиком и за предыдущие месяцы, начиная с января 2011 года, Вы можете получить, выбрав интересующий диапазон дат из раскрывающегося списка и нажав кнопку "Ввод!".

Внимание! Время в таблицах - всемирное. Для получения местного времени необходимо прибавить поправку, которая в London равна 0 ч.

Смотрите также архив погоды в соседних городах и на ближайших метеорологических станциях:

Погода в Northolt (Великобритания) (8 км)
Погода в London, St James Park (Великобритания) (23 км)
Погода в Charlwood (Великобритания) (28 км)
Погода в Farnborough (Великобритания) (31 км)
Погода в Kenley Airfield (Великобритания) (33 км)
Погода в High Wycombe Hqstc (Великобритания) (33 км)
Погода в Odiham (Великобритания) (44 км)
Погода в Benson (Великобритания) (46 км)
Погода в Gravesend-Broadness (Великобритания) (52 км)
Погода в Rothamsted (Великобритания) (66 км)

Пояснения к столбцам:

Ветер - указаны скорость ветра в м/с - средняя за 10 мин, порывы в срок и между сроками (в фигурных скобках) и направление, откуда дует ветер: С - северный, СВ - северо-восточный, В - восточный, ЮВ - юго-восточный, Ю - южный, ЮЗ - юго-западный, З - западный, СЗ - северо-западный.
Видимость - горизонтальная дальность видимости в метрах или километрах. При видимости от 1 до 10 км при отсутствии осадков обычно наблюдается дымка, при ухудшении видимости до 1 км и менее - туман. В сухую погоду видимость может ухудшаться дымом, пылью или мглою.
Явления - указаны атмосферные явления, наблюдавшиеся в срок или в последний час перед сроком; фигурными скобками обозначены явления, наблюдавшиеся между сроками (за 1-3 часа до срока); квадратными скобками обозначены град или гололедные отложения с указанием их диаметра в мм.
Облачность - указаны через наклонную черту общая и нижняя облачность в баллах и высота нижней границы облаков в метрах; квадратными скобками обозначены формы облаков: Ci - перистые, Cs - перисто-слоистые, Cc - перисто-кучевые, Ac - высококучевые, As - высокослоистые, Sc - слоисто-кучевые, Ns - слоисто-дождевые, Cu - кучевые, Cb - кучево-дождевые. Подробнее классификацию облаков см. в Атласе облаков (PDF).
T - Температура воздуха - температура, измеренная на высоте 2 м над землей.
Td - Температура точки росы - температура, при понижении до которой содержащийся в воздухе водяной пар достигнет насыщения.
f - Относительная влажность воздуха - влажноcть воздуха, измеренная на высоте 2 м над землей.
Te - Эффективная температура - температура, которую ощущает одетый по сезону человек в тени. Характеристика душности погоды. При расчете учитывается влияние влажности воздуха и скорости ветра на теплоощущения человека.
Tes - Эффективная температура на солнце - температура, которую ощущает человек, с поправкой на солнечный нагрев. Характеристика знойности погоды. Зависит от высоты солнца над горизонтом, облачности и скорости ветра. Ночью, в пасмурную погоду, а также при ветре 12 м/с и более поправка равна нулю.
P - Атмосферное давление - приведенное к уровню моря атмосферное давление.
Po - Атмосферное давление - измеренное на уровне метеостанции атмосферное давление.
Tmin - Минимальная температура - минимум температуры воздуха на высоте 2 м над землей.
Tmax - Максимальная температура - максимум температуры воздуха на высоте 2 м над землей.
R - Количество осадков - Количество выпавших осадков за период времени, мм. При наведении курсора мыши на число - период времени, за который выпало указанное количество осадков.
R24 - Количество осадков - Количество выпавших осадков за 24 часа, мм.
S - Снежный покров - Высота снежного покрова, см. При наведении курсора мыши на число - состояние снежного покрова и степень покрытия местности в баллах.